Regional Weather Roundup
Issued by NWS

Home | Current Version | Previous Version | Graphics & Text | Print | Product List | Glossary On
Versions: 1 2 3 4 5 6 7 8 9 10 11 12 13 14 15 16 17 18 19 20 21 22 23 24 25 26 27 28 29 30 31 32 33 34 35 36 37 38 39 40 41 42 43 44 45 46 47 48 49 50
000
ASUS43 KMKX 270811
RWRWI

WISCONSIN REGIONAL WEATHER ROUNDUP
NATIONAL WEATHER SERVICE MILWAUKEE/SULLIVAN WI
300 AM CDT THU APR 27 2017

NOTE: "FAIR" INDICATES FEW OR NO CLOUDS BELOW 12,000 FEET WITH NO
SIGNIFICANT WEATHER AND/OR OBSTRUCTIONS TO VISIBILITY.

WIZ001-002-006>008-014>016-023>028-270900-
NORTHWEST WISCONSIN

CITY           SKY/WX    TMP DP  RH WIND       PRES   REMARKS
SUPERIOR ARPT  CLOUDY    27  24  89 CALM      29.59F
ASHLAND        CLOUDY    28  26  92 N7        29.56F FOG     WCI  21
HAYWARD        LGT SNOW  28  25  88 NE8       29.52F FOG     WCI  20
SIREN          CLOUDY    31  27  86 CALM      29.55F
CUMBERLAND     CLOUDY    32  28  86 N8        29.52S WCI  25
RICE LAKE      CLOUDY    32  29  90 N7        29.54S WCI  26
CHETEK         CLOUDY    33  28  84 N9        29.51F WCI  25
LADYSMITH      CLOUDY    32  27  83 N10       29.51F WCI  23
EAU CLAIRE     CLOUDY    35  29  78 N8        29.49F WCI  29
MENOMONIE      CLOUDY    35  31  84 NW9       29.51F WCI  28
NEW RICHMOND   CLOUDY    33  29  85 N5        29.54S WCI  29
OSCEOLA        CLOUDY    33  33 100 N5        29.57F WCI  29
$$

WIZ003>005-009-010-017-018-270900-
NORTH CENTRAL WISCONSIN

CITY           SKY/WX    TMP DP  RH WIND       PRES   REMARKS
MANITOWISH WTR LGT SNOW  28  28 100 N6        29.47F WCI  21
ARBOR VITAE    LGT SNOW  32  30  94 N9        29.45F WCI  24
WOODRUFF       LGT SNOW  32  30  94 N9        29.45F WCI  24
RHINELANDER    CLOUDY    32  30  92 N8        29.44F WCI  25
EAGLE RIVER    LGT SNOW  29  28  96 N9        29.44F WCI  21
LAND O LAKES   LGT SNOW  29  27  93 N9        29.48F WCI  21
PHILLIPS       CLOUDY    29  26  90 N9        29.46F WCI  20
TOMAHAWK       CLOUDY    31  29  90 NW7       29.45F WCI  25
MEDFORD        CLOUDY    32  31  95 N10       29.43F WCI  24
MERRILL        CLOUDY    34  34  99 N9        29.44F WCI  27
$$

WIZ029-030-035-036-043>047-270900-
CENTRAL WISCONSIN

CITY           SKY/WX    TMP DP  RH WIND       PRES   REMARKS
WAUSAU         CLOUDY    36  34  92 N8        29.41F WCI  30
MOSINEE        DRIZZLE   36  36 100 NW9       29.43F WCI  29
MARSHFIELD     LGT RAIN  37  35  92 N10       29.41F WCI  30
STEVENS POINT  LGT RAIN  38  38 100 N7        29.41F WCI  32
WAUPACA        RAIN      45  42  91 NW7       29.40F
WAUTOMA        LGT RAIN  42  40  92 NW7       29.40
WISC RAPIDS    LGT RAIN  40  38  93 N10       29.42F WCI  33
CAMP DOUGLAS   LGT RAIN  39  38  95 NW14      29.42F WCI  31
$$

WIZ011>013-019>022-031-037>040-048>050-270900-
NORTHEAST WISCONSIN

CITY           SKY/WX    TMP DP  RH WIND       PRES   REMARKS
ANTIGO         DRIZZLE   35  34  96 N12       29.41F WCI  26
SHAWANO        DRIZZLE   46  43  90 NW3       29.41S
OCONTO         CLOUDY    44  42  95 N7        29.40S
STURGEON BAY   LGT RAIN  44  43  96 N9        29.39F
GREEN BAY      RAIN      50  50 100 W5        29.38F FOG
MANITOWOC      CLOUDY    52  50  93 N3        29.37F
APPLETON       RAIN      45  43  93 W6        29.37F
CLINTONVILLE   LGT RAIN  43  41  93 NW7       29.40F
OSHKOSH        RAIN      45  42  89 NW8       29.38F FOG
$$

WIZ032>034-041-042-053>061-270900-
SOUTHWEST WISCONSIN

CITY           SKY/WX    TMP DP  RH WIND       PRES   REMARKS
LA CROSSE      CLOUDY    41  36  82 NW12      29.46F
SPARTA         LGT RAIN  37  37  97 NW9       29.46F WCI  31
VIROQUA        CLOUDY    37  37 100 NW10G16   29.44F WCI  30
BOSCOBEL       LGT RAIN  42  39  89 NW6       29.44F
PRAIRIE DU CHI LGT RAIN  40  37  90 NW8       29.45F WCI  35
PLATTEVILLE    CLOUDY    41  41 100 NW8       29.43F
$$

WIZ056-057-062-063-064-067-068-270900-
SOUTH CENTRAL WISCONSIN

CITY           SKY/WX    TMP DP  RH WIND       PRES   REMARKS
REEDSBURG      DRIZZLE   40  40 100 NW7       29.41F WCI  35
BARABOO/DELLS  RAIN      40  39  95 NW7       29.40F
LONE ROCK      LGT RAIN  43  39  86 NW9       29.42F FOG
MINERAL POINT  RAIN      43  43 100 NW9G16    29.41F
MADISON        RAIN      44  42  93 N10       29.37F FOG
MIDDLETON      CLOUDY    46  45  97 NW9       29.38F
WATERTOWN      LGT RAIN  46  46 100 N9        29.36F
MONROE         RAIN      43  43 100 NW13      29.38S
JANESVILLE     LGT RAIN  50  50 100 N8        29.34F
$$

WIZ051-052-058>065-066-070>072-270900-
SOUTHEAST WISCONSIN

CITY           SKY/WX    TMP DP  RH WIND       PRES   REMARKS
MILWAUKEE      LGT RAIN  55  54  96 NE6       29.34F FOG
WAUKESHA       LGT RAIN  48  48 100 N7        29.36F
MILWAUKEE/TIMM RAIN      52  50  93 N3        29.35F
RACINE         LGT RAIN  54  52  93 SE8       29.35F VSB 1
KENOSHA        LGT RAIN  56  55  97 SE9       29.33F FOG
FOND DU LAC    RAIN      46  43  89 NW12      29.38F FOG
SHEBOYGAN      LGT RAIN  51  49  92 NW5       29.36  FOG
WEST BEND      RAIN      48  48 100 N5        29.36F
JUNEAU         RAIN      45  44  97 NW3       29.38F
$$

LSZ147-162-270900-
LAKE SUPERIOR

STATION/POSITION TIME  TEMP    WIND        PRES    WAVE
                       AIR SEA DIR/SP/G            HT/PER
                 (UTC) (F)     (DEG/KT/KT) (MB)    (FT/S)
DEVILS ISLAND    0800   27      10/ 13/ 15 1002.2F
SAXON HARBOR     0730   31      20/ 12/ 14 1001.4F
$$

LMZ867-665-643>646-270900-
LAKE MICHIGAN

STATION/POSITION TIME  TEMP    WIND        PRES    WAVE
                       AIR SEA DIR/SP/G            HT/PER
                 (UTC) (F)     (DEG/KT/KT) (MB)    (FT/S)
CHAMBERS ISLAND  0740   42     340/  5/  6  995.6F
N MID LAKE BUOY  0750   41 37  210/  4/  4  996.3F   1/ 5
NORTHPORT PIER   0740   40     320/  9/ 12  995.9F
KEWAUNEE LAKESHO 0748   52     320/  1/  3  994.5F
SHEBOYGAN LAKESH 0800   51     340/  6/  6  993.8F
PORT WASHINGTON  0740   53     360/  3/ 10  995.3F
MILWAUKEE LAKESH 0750   49        CALM       N/A
S MID LAKE BUOY  0650   47 42   90/  8/  8  996.0F   0
KENOSHA   LAKESH 0800   50     170/ 12/ 14  993.6
$$

TC  - TEMPERATURE IN CELSIUS
VSB - VISIBILITY IN STATUTE MILES
WCI - WIND CHILL INDEX
HX  - HEAT INDEX




USA.gov is the U.S. government's official web portal to all federal, state and local government web resources and services.